QTR75 OERK-OETF

Flight info

Callsign QTR75
Flight time 1h 27m
Altitude 20000
Route DURMA1E DURMA DCT RGB DCT LAKMI DCT KUTOL DCT PUSDI DCT IMGUT DCT ITLUN DCT BUBIM DCT TF604 DCT TF603 DCT OTERI DCT
Aircraft A332/H-SDE3GHIJ2J3J5M1RVWXY/LB2D1

Departure

Time 2026-05-06 10:20
Airport King Khalid International Airport (OERK)

Arrival

Time 2026-05-06 11:48
Airport Taif International Airport (OETF)
Time Latitude Longitude Altitude Speed Heading
2026-05-06 10:17 24.97686 46.69427 2028 ft 0 kts 240°
2026-05-06 10:17 24.97740 46.69526 2027 ft 0 kts 150°
2026-05-06 10:18 24.97586 46.70055 2026 ft 0 kts 60°
2026-05-06 10:18 24.97591 46.70065 2035 ft 3 kts 60°
2026-05-06 10:19 24.97609 46.70099 2034 ft 7 kts 60°
2026-05-06 10:19 24.97635 46.70158 2031 ft 10 kts 73°
2026-05-06 10:19 24.97623 46.70236 2030 ft 11 kts 127°
2026-05-06 10:19 24.97552 46.70288 2037 ft 19 kts 148°
2026-05-06 10:20 24.97236 46.70495 2034 ft 97 kts 150°
2026-05-06 10:20 24.96387 46.71019 2048 ft 181 kts 152°
2026-05-06 10:20 24.95168 46.71881 2654 ft 227 kts 147°
2026-05-06 10:20 24.93837 46.72987 3299 ft 249 kts 144°
2026-05-06 10:21 24.92414 46.74250 3620 ft 275 kts 144°
2026-05-06 10:21 24.90886 46.75612 4169 ft 285 kts 144°
2026-05-06 10:21 24.89365 46.76950 5193 ft 276 kts 145°
2026-05-06 10:21 24.87825 46.78180 6136 ft 272 kts 150°
2026-05-06 10:22 24.86177 46.79222 6981 ft 272 kts 154°
2026-05-06 10:22 24.84525 46.80203 7828 ft 275 kts 155°
2026-05-06 10:22 24.82817 46.81196 8675 ft 280 kts 155°
2026-05-06 10:22 24.81083 46.82196 9613 ft 282 kts 156°
2026-05-06 10:23 24.79304 46.83118 10500 ft 284 kts 162°
2026-05-06 10:23 24.77409 46.83755 11378 ft 287 kts 167°
2026-05-06 10:23 24.75404 46.84321 11892 ft 308 kts 168°
2026-05-06 10:23 24.73246 46.84909 12311 ft 328 kts 168°
2026-05-06 10:24 24.70990 46.85528 12977 ft 339 kts 168°
2026-05-06 10:24 24.68681 46.86150 13787 ft 344 kts 170°
2026-05-06 10:24 24.66303 46.86375 14576 ft 344 kts 186°
2026-05-06 10:24 24.63976 46.85753 15302 ft 347 kts 206°
2026-05-06 10:25 24.61998 46.84255 16090 ft 348 kts 226°
2026-05-06 10:25 24.60550 46.82111 16920 ft 350 kts 239°
2026-05-06 10:25 24.59372 46.79792 17725 ft 354 kts 242°
2026-05-06 10:25 24.58205 46.77394 18469 ft 357 kts 242°
2026-05-06 10:26 24.57021 46.74973 19136 ft 361 kts 242°
2026-05-06 10:26 24.55814 46.72527 19630 ft 363 kts 242°
2026-05-06 10:26 24.54601 46.70084 19808 ft 363 kts 242°
2026-05-06 10:26 24.53392 46.67661 19845 ft 360 kts 242°
2026-05-06 10:27 24.52190 46.65255 19829 ft 359 kts 242°
2026-05-06 10:27 24.50987 46.62851 19839 ft 359 kts 242°
2026-05-06 10:27 24.49798 46.60477 19848 ft 359 kts 241°
2026-05-06 10:27 24.48579 46.58044 19848 ft 359 kts 242°
2026-05-06 10:28 24.47440 46.55648 19851 ft 359 kts 246°
2026-05-06 10:28 24.46749 46.53010 19843 ft 360 kts 261°
2026-05-06 10:28 24.46580 46.50261 19848 ft 362 kts 267°
2026-05-06 10:28 24.46537 46.47495 19842 ft 362 kts 268°
2026-05-06 10:29 24.46509 46.44734 19857 ft 362 kts 268°
2026-05-06 10:29 24.46475 46.41968 19847 ft 362 kts 268°
2026-05-06 10:29 24.46436 46.39202 19840 ft 362 kts 268°
2026-05-06 10:29 24.46393 46.36440 19853 ft 362 kts 267°
2026-05-06 10:30 24.46348 46.33677 19853 ft 362 kts 267°
2026-05-06 10:30 24.46301 46.30913 19854 ft 362 kts 267°
2026-05-06 10:30 24.46253 46.28185 19857 ft 362 kts 267°
2026-05-06 10:30 24.46204 46.25423 19856 ft 362 kts 267°
2026-05-06 10:31 24.46155 46.22655 19860 ft 362 kts 267°
2026-05-06 10:31 24.46104 46.19888 19859 ft 362 kts 267°
2026-05-06 10:31 24.46054 46.17130 19846 ft 362 kts 267°
2026-05-06 10:31 24.46003 46.14358 19859 ft 362 kts 267°
2026-05-06 10:32 24.45951 46.11598 19848 ft 362 kts 267°
2026-05-06 10:32 24.45898 46.08829 19854 ft 362 kts 267°
2026-05-06 10:32 24.45846 46.06097 19856 ft 362 kts 267°
2026-05-06 10:32 24.45793 46.03337 19842 ft 362 kts 267°
2026-05-06 10:33 24.45739 46.00575 19860 ft 362 kts 267°
2026-05-06 10:33 24.45685 45.97813 19861 ft 362 kts 266°
2026-05-06 10:33 24.45631 45.95045 19859 ft 362 kts 266°
2026-05-06 10:33 24.45578 45.92280 19860 ft 363 kts 266°
2026-05-06 10:34 24.45525 45.89504 19863 ft 363 kts 266°
2026-05-06 10:34 24.45472 45.86735 19858 ft 362 kts 266°
2026-05-06 10:34 24.45418 45.83977 19850 ft 361 kts 266°
2026-05-06 10:34 24.45364 45.81229 19851 ft 360 kts 266°
2026-05-06 10:35 24.45270 45.78519 19921 ft 362 kts 262°
2026-05-06 10:46 24.45087 45.77229 20043 ft 365 kts 255°
2026-05-06 10:47 24.44228 45.74592 20656 ft 368 kts 245°
2026-05-06 10:47 24.43135 45.72046 21395 ft 370 kts 243°
2026-05-06 10:47 24.42011 45.69534 22080 ft 372 kts 243°
2026-05-06 10:47 24.40862 45.66972 22756 ft 376 kts 243°
2026-05-06 10:48 24.39702 45.64380 23409 ft 379 kts 244°
2026-05-06 10:48 24.38536 45.61769 23949 ft 382 kts 244°
2026-05-06 10:48 24.37367 45.59147 24555 ft 383 kts 244°
2026-05-06 10:48 24.36193 45.56513 25132 ft 384 kts 244°
2026-05-06 10:49 24.35029 45.53903 25598 ft 387 kts 244°
2026-05-06 10:49 24.33846 45.51252 25803 ft 385 kts 244°
2026-05-06 10:49 24.32680 45.48639 25833 ft 378 kts 244°
2026-05-06 10:49 24.31528 45.46059 25840 ft 376 kts 244°
2026-05-06 10:50 24.30377 45.43481 25849 ft 376 kts 244°
2026-05-06 10:50 24.29218 45.40887 26009 ft 383 kts 244°
2026-05-06 10:50 24.28034 45.38241 26414 ft 388 kts 244°
2026-05-06 10:50 24.26844 45.35580 26945 ft 390 kts 244°
2026-05-06 10:51 24.25647 45.32906 27493 ft 391 kts 244°
2026-05-06 10:51 24.24446 45.30226 28035 ft 393 kts 244°
2026-05-06 10:51 24.23238 45.27531 28558 ft 395 kts 244°
2026-05-06 10:51 24.22026 45.24829 29080 ft 396 kts 244°
2026-05-06 10:52 24.20807 45.22113 29587 ft 398 kts 244°
2026-05-06 10:52 24.19997 45.20307 29914 ft 400 kts 244°
2026-05-06 10:52 24.18764 45.17563 30251 ft 403 kts 244°
2026-05-06 10:52 24.17118 45.13900 30805 ft 405 kts 244°
2026-05-06 10:53 24.15871 45.11126 31216 ft 407 kts 244°
2026-05-06 10:53 24.14619 45.08333 31617 ft 409 kts 244°
2026-05-06 10:53 24.13786 45.06477 31979 ft 408 kts 244°
2026-05-06 10:53 24.12541 45.03702 32618 ft 404 kts 245°
2026-05-06 10:54 24.11307 45.00952 33226 ft 401 kts 245°
2026-05-06 10:54 24.10079 44.98218 33843 ft 397 kts 244°
2026-05-06 10:54 24.08867 44.95522 34439 ft 392 kts 244°
2026-05-06 10:54 24.07668 44.92855 34951 ft 390 kts 244°
2026-05-06 10:55 24.06468 44.90189 35181 ft 391 kts 244°
2026-05-06 10:55 24.05283 44.87555 34970 ft 389 kts 244°
2026-05-06 10:55 24.04085 44.84897 34734 ft 390 kts 244°
2026-05-06 10:55 24.02884 44.82231 34504 ft 391 kts 244°
2026-05-06 10:56 24.01677 44.79556 34284 ft 392 kts 244°
2026-05-06 10:56 24.00468 44.76877 34060 ft 393 kts 244°
2026-05-06 10:56 23.99256 44.74192 33813 ft 394 kts 244°
2026-05-06 10:56 23.98038 44.71496 33553 ft 397 kts 244°
2026-05-06 10:57 23.96824 44.68810 33304 ft 399 kts 244°
2026-05-06 10:57 23.95591 44.66083 33047 ft 400 kts 244°
2026-05-06 10:57 23.94354 44.63350 32798 ft 402 kts 244°
2026-05-06 10:57 23.93127 44.60605 32560 ft 402 kts 246°
2026-05-06 10:58 23.92050 44.57783 32313 ft 401 kts 248°
2026-05-06 10:58 23.91017 44.54947 32071 ft 402 kts 249°
2026-05-06 10:58 23.90003 44.52097 31828 ft 403 kts 249°
2026-05-06 10:58 23.88995 44.49231 31585 ft 404 kts 249°
2026-05-06 10:59 23.87991 44.46364 31339 ft 405 kts 249°
2026-05-06 10:59 23.86997 44.43528 31087 ft 406 kts 249°
2026-05-06 10:59 23.85984 44.40642 30893 ft 406 kts 249°
2026-05-06 10:59 23.84974 44.37772 30644 ft 404 kts 249°
2026-05-06 11:00 23.83968 44.34919 30404 ft 401 kts 249°
2026-05-06 11:00 23.82965 44.32081 30177 ft 400 kts 249°
2026-05-06 11:00 23.81964 44.29250 29954 ft 399 kts 249°
2026-05-06 11:00 23.80965 44.26427 29681 ft 398 kts 249°
2026-05-06 11:01 23.79968 44.23613 29392 ft 397 kts 249°
2026-05-06 11:01 23.78974 44.20809 29150 ft 395 kts 249°
2026-05-06 11:01 23.77983 44.18015 28894 ft 393 kts 249°
2026-05-06 11:01 23.76998 44.15239 28625 ft 392 kts 249°
2026-05-06 11:02 23.76015 44.12469 28340 ft 391 kts 249°
2026-05-06 11:02 23.75030 44.09697 28083 ft 392 kts 249°
2026-05-06 11:02 23.74045 44.06926 27826 ft 392 kts 249°
2026-05-06 11:02 23.73059 44.04154 27580 ft 391 kts 249°
2026-05-06 11:03 23.72087 44.01424 27339 ft 390 kts 249°
2026-05-06 11:03 23.71105 43.98669 27091 ft 388 kts 249°
2026-05-06 11:03 23.70127 43.95925 26847 ft 387 kts 248°
2026-05-06 11:03 23.69152 43.93190 26602 ft 387 kts 248°
2026-05-06 11:04 23.68177 43.90459 26374 ft 386 kts 248°
2026-05-06 11:04 23.67203 43.87730 26125 ft 385 kts 248°
2026-05-06 11:04 23.66230 43.85009 25877 ft 385 kts 248°
2026-05-06 11:04 23.65257 43.82287 25666 ft 384 kts 248°
2026-05-06 11:05 23.64285 43.79572 25423 ft 383 kts 248°
2026-05-06 11:05 23.64242 43.79451 25417 ft 383 kts 248°
2026-05-06 11:06 23.63443 43.77221 25209 ft 383 kts 248°
2026-05-06 11:06 23.62473 43.74513 24994 ft 383 kts 248°
2026-05-06 11:06 23.61505 43.71809 24864 ft 383 kts 248°
2026-05-06 11:06 23.60535 43.69108 24844 ft 383 kts 248°
2026-05-06 11:07 23.59563 43.66399 24852 ft 383 kts 248°
2026-05-06 11:07 23.58589 43.63691 24852 ft 383 kts 248°
2026-05-06 11:07 23.57617 43.60988 24851 ft 382 kts 248°
2026-05-06 11:07 23.56645 43.58284 24854 ft 382 kts 248°
2026-05-06 11:08 23.55688 43.55624 24854 ft 382 kts 248°
2026-05-06 11:08 23.54719 43.52932 24853 ft 382 kts 248°
2026-05-06 11:08 23.53748 43.50235 24859 ft 382 kts 248°
2026-05-06 11:08 23.52773 43.47529 24966 ft 384 kts 248°
2026-05-06 11:09 23.51788 43.44799 25431 ft 388 kts 248°
2026-05-06 11:09 23.50801 43.42065 26063 ft 387 kts 248°
2026-05-06 11:09 23.49816 43.39339 26711 ft 387 kts 248°
2026-05-06 11:09 23.48829 43.36608 27292 ft 387 kts 248°
2026-05-06 11:10 23.47841 43.33876 27845 ft 389 kts 248°
2026-05-06 11:10 23.46860 43.31164 28379 ft 390 kts 248°
2026-05-06 11:10 23.45861 43.28408 28923 ft 392 kts 248°
2026-05-06 11:10 23.44858 43.25638 29430 ft 394 kts 248°
2026-05-06 11:11 23.43847 43.22851 29946 ft 396 kts 248°
2026-05-06 11:11 23.42834 43.20057 30379 ft 397 kts 248°
2026-05-06 11:11 23.41816 43.17252 30792 ft 399 kts 248°
2026-05-06 11:11 23.40789 43.14425 31171 ft 402 kts 248°
2026-05-06 11:12 23.39755 43.11580 31587 ft 404 kts 248°
2026-05-06 11:12 23.38724 43.08743 32175 ft 401 kts 248°
2026-05-06 11:12 23.37702 43.05933 32798 ft 398 kts 248°
2026-05-06 11:12 23.36686 43.03142 33411 ft 395 kts 248°
2026-05-06 11:13 23.35688 43.00400 33782 ft 396 kts 248°
2026-05-06 11:13 23.33656 42.94829 33862 ft 394 kts 248°
2026-05-06 11:14 23.31634 42.89288 33859 ft 393 kts 248°
2026-05-06 11:14 23.29620 42.83779 33779 ft 393 kts 248°
2026-05-06 11:15 23.27595 42.78245 33837 ft 397 kts 248°
2026-05-06 11:15 23.25551 42.72667 33859 ft 396 kts 248°
2026-05-06 11:16 23.23508 42.67098 33847 ft 396 kts 248°
2026-05-06 11:16 23.21462 42.61529 33851 ft 396 kts 248°
2026-05-06 11:17 23.19431 42.56005 33842 ft 395 kts 248°
2026-05-06 11:17 23.17388 42.50458 33840 ft 395 kts 248°
2026-05-06 11:18 23.15342 42.44908 33834 ft 396 kts 248°
2026-05-06 11:18 23.13285 42.39337 33839 ft 398 kts 247°
2026-05-06 11:19 23.11240 42.33745 33827 ft 397 kts 248°
2026-05-06 11:19 23.09240 42.28139 33829 ft 397 kts 248°
2026-05-06 11:20 23.07261 42.22570 33826 ft 397 kts 248°
2026-05-06 11:20 23.05265 42.16975 33822 ft 396 kts 248°
2026-05-06 11:21 23.03273 42.11407 33811 ft 395 kts 248°
2026-05-06 11:21 23.01276 42.05836 33585 ft 395 kts 248°
2026-05-06 11:21 23.00291 42.03089 33334 ft 396 kts 248°
2026-05-06 11:22 22.99287 42.00294 33074 ft 397 kts 248°
2026-05-06 11:22 22.98282 41.97496 32835 ft 398 kts 248°
2026-05-06 11:22 22.97276 41.94696 32584 ft 398 kts 248°
2026-05-06 11:22 22.96270 41.91900 32346 ft 398 kts 248°
2026-05-06 11:23 22.95258 41.89087 32090 ft 399 kts 248°
2026-05-06 11:23 22.94247 41.86280 31851 ft 400 kts 248°
2026-05-06 11:23 22.93233 41.83466 31606 ft 401 kts 248°
2026-05-06 11:23 22.92215 41.80640 31361 ft 402 kts 248°
2026-05-06 11:24 22.91194 41.77809 31129 ft 403 kts 248°
2026-05-06 11:24 22.90187 41.75019 30889 ft 403 kts 248°
2026-05-06 11:24 22.89164 41.72188 30651 ft 403 kts 248°
2026-05-06 11:24 22.88145 41.69367 30425 ft 402 kts 248°
2026-05-06 11:25 22.87126 41.66549 30208 ft 400 kts 248°
2026-05-06 11:25 22.86108 41.63737 29973 ft 399 kts 248°
2026-05-06 11:25 22.85092 41.60930 29717 ft 398 kts 248°
2026-05-06 11:25 22.84080 41.58137 29457 ft 397 kts 248°
2026-05-06 11:26 22.83071 41.55353 29183 ft 395 kts 248°
2026-05-06 11:26 22.82068 41.52586 28920 ft 393 kts 248°
2026-05-06 11:26 22.81079 41.49861 28661 ft 392 kts 248°
2026-05-06 11:26 22.80081 41.47113 28401 ft 391 kts 248°
2026-05-06 11:27 22.79083 41.44368 28145 ft 390 kts 248°
2026-05-06 11:27 22.78090 41.41637 27888 ft 389 kts 248°
2026-05-06 11:27 22.77095 41.38904 27615 ft 390 kts 248°
2026-05-06 11:27 22.76100 41.36173 27362 ft 390 kts 247°
2026-05-06 11:28 22.74916 41.33538 27137 ft 388 kts 239°
2026-05-06 11:28 22.73361 41.31160 26884 ft 387 kts 230°
2026-05-06 11:28 22.71435 41.29133 26648 ft 387 kts 221°
2026-05-06 11:28 22.69313 41.27339 26398 ft 387 kts 219°
2026-05-06 11:29 22.67150 41.25662 26151 ft 387 kts 217°
2026-05-06 11:29 22.64930 41.24015 25920 ft 386 kts 217°
2026-05-06 11:29 22.62703 41.22387 25683 ft 386 kts 217°
2026-05-06 11:29 22.60477 41.20759 25441 ft 385 kts 217°
2026-05-06 11:30 22.58256 41.19124 25201 ft 385 kts 217°
2026-05-06 11:30 22.56045 41.17484 24985 ft 385 kts 217°
2026-05-06 11:30 22.53864 41.15858 24753 ft 385 kts 217°
2026-05-06 11:30 22.51662 41.14212 24521 ft 384 kts 217°
2026-05-06 11:31 22.49443 41.12600 24312 ft 383 kts 213°
2026-05-06 11:31 22.47173 41.11170 24067 ft 373 kts 212°
2026-05-06 11:31 22.44935 41.09796 23673 ft 367 kts 212°
2026-05-06 11:31 22.42708 41.08440 23141 ft 366 kts 212°
2026-05-06 11:32 22.40498 41.07102 22653 ft 361 kts 211°
2026-05-06 11:32 22.38318 41.05785 22206 ft 356 kts 211°
2026-05-06 11:32 22.36171 41.04491 21809 ft 351 kts 211°
2026-05-06 11:32 22.34079 41.03230 21389 ft 347 kts 211°
2026-05-06 11:33 22.31979 41.01965 20975 ft 345 kts 211°
2026-05-06 11:33 22.29883 41.00702 20586 ft 344 kts 211°
2026-05-06 11:33 22.27792 40.99444 20142 ft 342 kts 211°
2026-05-06 11:33 22.25712 40.98193 19744 ft 340 kts 210°
2026-05-06 11:34 22.23651 40.96954 19344 ft 338 kts 210°
2026-05-06 11:34 22.21596 40.95719 18978 ft 341 kts 210°
2026-05-06 11:34 22.19479 40.94448 18737 ft 353 kts 210°
2026-05-06 11:34 22.17314 40.93149 18500 ft 357 kts 210°
2026-05-06 11:35 22.15146 40.91848 18287 ft 356 kts 210°
2026-05-06 11:35 22.12975 40.90546 18063 ft 356 kts 209°
2026-05-06 11:35 22.10825 40.89257 17805 ft 352 kts 209°
2026-05-06 11:35 22.08698 40.87982 17536 ft 346 kts 209°
2026-05-06 11:36 22.06616 40.86734 17129 ft 339 kts 209°
2026-05-06 11:36 22.04549 40.85524 16549 ft 337 kts 206°
2026-05-06 11:36 22.02360 40.84517 15518 ft 348 kts 201°
2026-05-06 11:36 22.00094 40.83592 14545 ft 357 kts 200°
2026-05-06 11:37 21.97724 40.82659 13602 ft 365 kts 199°
2026-05-06 11:37 21.95352 40.81739 13048 ft 357 kts 199°
2026-05-06 11:37 21.93037 40.80846 12519 ft 348 kts 200°
2026-05-06 11:37 21.90761 40.79971 11734 ft 348 kts 200°
2026-05-06 11:38 21.88491 40.79099 11012 ft 348 kts 200°
2026-05-06 11:38 21.86259 40.78242 10616 ft 331 kts 200°
2026-05-06 11:38 21.84152 40.77435 10136 ft 310 kts 200°
2026-05-06 11:38 21.82199 40.76687 9823 ft 287 kts 201°
2026-05-06 11:39 21.80388 40.75995 9586 ft 266 kts 201°
2026-05-06 11:39 21.78701 40.75349 9390 ft 250 kts 201°
2026-05-06 11:39 21.77093 40.74733 9276 ft 241 kts 201°
2026-05-06 11:39 21.75538 40.74136 9154 ft 233 kts 201°
2026-05-06 11:40 21.74037 40.73561 9051 ft 225 kts 201°
2026-05-06 11:40 21.73072 40.73192 9004 ft 220 kts 201°
2026-05-06 11:40 21.71192 40.72471 8773 ft 216 kts 201°
2026-05-06 11:40 21.69766 40.71924 8531 ft 218 kts 202°
2026-05-06 11:41 21.68347 40.71380 8359 ft 215 kts 202°
2026-05-06 11:41 21.66944 40.70844 8201 ft 214 kts 202°
2026-05-06 11:41 21.66012 40.70488 8072 ft 214 kts 204°
2026-05-06 11:41 21.64623 40.69960 7987 ft 208 kts 204°
2026-05-06 11:42 21.62868 40.69289 7902 ft 196 kts 203°
2026-05-06 11:42 21.61620 40.68816 7873 ft 183 kts 205°
2026-05-06 11:42 21.60827 40.68516 7847 ft 175 kts 205°
2026-05-06 11:42 21.59718 40.68092 7726 ft 168 kts 207°
2026-05-06 11:43 21.58645 40.67682 7625 ft 159 kts 205°
2026-05-06 11:43 21.57638 40.67298 7479 ft 149 kts 207°
2026-05-06 11:43 21.56679 40.66931 7259 ft 144 kts 207°
2026-05-06 11:44 21.54823 40.66219 6799 ft 140 kts 207°
2026-05-06 11:44 21.53913 40.65870 6619 ft 136 kts 207°
2026-05-06 11:44 21.53033 40.65535 6407 ft 133 kts 208°
2026-05-06 11:44 21.52163 40.65199 6158 ft 135 kts 206°
2026-05-06 11:45 21.51373 40.64701 6069 ft 130 kts 233°
2026-05-06 11:45 21.50878 40.63894 6166 ft 130 kts 245°
2026-05-06 11:45 21.50547 40.62994 6143 ft 131 kts 256°
2026-05-06 11:45 21.50295 40.62048 5990 ft 131 kts 256°
2026-05-06 11:46 21.50044 40.61101 5827 ft 132 kts 256°
2026-05-06 11:46 21.49799 40.60144 5657 ft 133 kts 255°
2026-05-06 11:46 21.49550 40.59187 5495 ft 132 kts 260°
2026-05-06 11:46 21.49309 40.58242 5330 ft 132 kts 258°
2026-05-06 11:47 21.49064 40.57293 5141 ft 132 kts 260°
2026-05-06 11:47 21.48822 40.56333 4959 ft 133 kts 261°
2026-05-06 11:47 21.48577 40.55377 4797 ft 132 kts 259°
2026-05-06 11:47 21.48379 40.54581 4786 ft 70 kts 252°
2026-05-06 11:48 21.48297 40.54288 4791 ft 34 kts 254°
2026-05-06 11:48 21.48237 40.54047 4793 ft 33 kts 256°
2026-05-06 11:48 21.48177 40.53809 4793 ft 33 kts 255°
2026-05-06 11:48 21.48123 40.53627 4792 ft 18 kts 250°
2026-05-06 11:49 21.48047 40.53580 4792 ft 13 kts 173°
2026-05-06 11:49 21.47639 40.53985 4795 ft 0 kts 231°